Meteo pe oră la Czysciec

Astăzi, 14 Aprilie, Miercuri

Timp Temperatura Precipitaţii Vânt Presiune Umiditate
00:00 +3°C° 0 mm 2 m/s 759 mmHg 74%
01:00 +2°C° 0 mm 2 m/s 759 mmHg 74%
02:00 +2°C° 0 mm 2 m/s 759 mmHg 76%
03:00 +2°C° 0 mm 2 m/s 759 mmHg 77%
04:00 +1°C° 0 mm 3 m/s 758 mmHg 79%
05:00 +1°C° 0 mm 3 m/s 758 mmHg 79%
06:00 +1°C° 0 mm 3 m/s 759 mmHg 79%
07:00 0°C° 0 mm 4 m/s 759 mmHg 78%
08:00 +1°C° 0 mm 4 m/s 759 mmHg 73%
09:00 +4°C° 0 mm 4 m/s 759 mmHg 68%
10:00 +5°C° 0 mm 4 m/s 759 mmHg 63%
11:00 +5°C° 0.2 mm 4 m/s 759 mmHg 58%
12:00 +6°C° 0.2 mm 5 m/s 758 mmHg 52%
13:00 +6°C° 0.2 mm 5 m/s 758 mmHg 47%
14:00 +6°C° 0 mm 5 m/s 758 mmHg 45%
15:00 +6°C° 0 mm 5 m/s 758 mmHg 44%
16:00 +7°C° 0 mm 5 m/s 758 mmHg 42%
17:00 +5°C° 0 mm 4 m/s 758 mmHg 48%
18:00 +4°C° 0 mm 4 m/s 758 mmHg 53%
19:00 +3°C° 0 mm 3 m/s 758 mmHg 59%
20:00 +3°C° 0 mm 3 m/s 759 mmHg 64%
21:00 +2°C° 0 mm 3 m/s 759 mmHg 70%
22:00 +2°C° 0 mm 3 m/s 759 mmHg 75%
23:00 +2°C° 0 mm 3 m/s 759 mmHg 75%

Mâine, 15 Aprilie, Joi

Timp Temperatura Precipitaţii Vânt Presiune Umiditate
00:00 +1°C° 0 mm 3 m/s 759 mmHg 75%
01:00 +1°C° 0 mm 3 m/s 759 mmHg 75%
02:00 +1°C° 0 mm 3 m/s 759 mmHg 76%
03:00 +1°C° 0 mm 3 m/s 759 mmHg 77%
04:00 +1°C° 0 mm 3 m/s 759 mmHg 79%
05:00 0°C° 0 mm 4 m/s 759 mmHg 80%
06:00 0°C° 0 mm 4 m/s 759 mmHg 82%
07:00 0°C° 0 mm 5 m/s 759 mmHg 83%
08:00 +1°C° 0.2 mm 5 m/s 759 mmHg 80%
09:00 +1°C° 0.2 mm 6 m/s 758 mmHg 76%
10:00 +2°C° 0.2 mm 6 m/s 758 mmHg 73%
11:00 +2°C° 0.5 mm 6 m/s 758 mmHg 78%
12:00 +2°C° 0.5 mm 6 m/s 758 mmHg 83%
13:00 +2°C° 0.5 mm 6 m/s 758 mmHg 88%
14:00 +2°C° 0.5 mm 6 m/s 758 mmHg 90%
15:00 +2°C° 0.5 mm 6 m/s 757 mmHg 93%
16:00 +2°C° 0.5 mm 6 m/s 757 mmHg 95%
17:00 +1°C° 0.6 mm 5 m/s 757 mmHg 96%
18:00 +1°C° 0.6 mm 5 m/s 757 mmHg 96%
19:00 +1°C° 0.6 mm 5 m/s 757 mmHg 96%
20:00 +1°C° 0.6 mm 5 m/s 757 mmHg 95%
21:00 +1°C° 0.6 mm 5 m/s 757 mmHg 94%
22:00 +1°C° 0.6 mm 5 m/s 756 mmHg 93%
23:00 +1°C° 0.1 mm 4 m/s 756 mmHg 90%

Poimâine, 16 Aprilie, Vineri

Timp Temperatura Precipitaţii Vânt Presiune Umiditate
00:00 +1°C° 0.1 mm 4 m/s 756 mmHg 88%
01:00 +3°C° 0.1 mm 4 m/s 756 mmHg 86%
02:00 +1°C° 0 mm 4 m/s 756 mmHg 87%
03:00 +1°C° 0 mm 4 m/s 756 mmHg 87%
04:00 +1°C° 0 mm 4 m/s 756 mmHg 88%
05:00 +1°C° 0 mm 4 m/s 756 mmHg 86%
06:00 +1°C° 0 mm 4 m/s 756 mmHg 84%
07:00 +3°C° 0 mm 4 m/s 756 mmHg 83%
08:00 +4°C° 0 mm 4 m/s 757 mmHg 77%
09:00 +5°C° 0 mm 4 m/s 757 mmHg 71%
10:00 +6°C° 0 mm 4 m/s 757 mmHg 66%
11:00 +6°C° 0 mm 4 m/s 757 mmHg 66%
12:00 +7°C° 0 mm 4 m/s 757 mmHg 67%
13:00 +7°C° 0 mm 4 m/s 757 mmHg 68%
14:00 +6°C° 0 mm 4 m/s 757 mmHg 75%
15:00 +5°C° 0 mm 4 m/s 757 mmHg 82%
16:00 +4°C° 0 mm 3 m/s 757 mmHg 90%
17:00 +4°C° 0 mm 3 m/s 757 mmHg 89%
18:00 +4°C° 0 mm 3 m/s 757 mmHg 89%
19:00 +5°C° 0 mm 2 m/s 757 mmHg 89%
20:00 +5°C° 0.1 mm 2 m/s 757 mmHg 89%
21:00 +5°C° 0.1 mm 2 m/s 757 mmHg 89%
22:00 +5°C° 0.1 mm 2 m/s 757 mmHg 90%
23:00 +5°C° 0 mm 2 m/s 757 mmHg 90%

17 Aprilie, Sâmbătă

Timp Temperatura Precipitaţii Vânt Presiune Umiditate
00:00 +5°C° 0 mm 2 m/s 757 mmHg 91%
01:00 +5°C° 0 mm 2 m/s 757 mmHg 92%
02:00 +5°C° 0 mm 2 m/s 757 mmHg 92%
03:00 +5°C° 0 mm 2 m/s 757 mmHg 92%
04:00 +5°C° 0 mm 2 m/s 757 mmHg 92%
05:00 +5°C° 0 mm 2 m/s 757 mmHg 91%
06:00 +5°C° 0 mm 2 m/s 757 mmHg 90%
07:00 +6°C° 0 mm 2 m/s 757 mmHg 89%
08:00 +6°C° 0 mm 2 m/s 757 mmHg 87%
09:00 +7°C° 0 mm 3 m/s 757 mmHg 85%
10:00 +8°C° 0 mm 3 m/s 757 mmHg 82%
11:00 +8°C° 0 mm 3 m/s 757 mmHg 83%
12:00 +8°C° 0 mm 3 m/s 757 mmHg 83%
13:00 +8°C° 0 mm 4 m/s 757 mmHg 83%
14:00 +8°C° 0.1 mm 3 m/s 757 mmHg 85%
15:00 +8°C° 0.1 mm 3 m/s 756 mmHg 88%
16:00 +8°C° 0.1 mm 2 m/s 756 mmHg 90%
17:00 +8°C° 0 mm 2 m/s 756 mmHg 91%
18:00 +8°C° 0 mm 2 m/s 756 mmHg 92%
19:00 +7°C° 0 mm 2 m/s 756 mmHg 92%
20:00 +7°C° 0 mm 2 m/s 756 mmHg 92%
21:00 +7°C° 0 mm 2 m/s 756 mmHg 92%
22:00 +7°C° 0 mm 3 m/s 756 mmHg 92%
23:00 +7°C° 0 mm 3 m/s 756 mmHg 93%

18 Aprilie, Duminică

Timp Temperatura Precipitaţii Vânt Presiune Umiditate
00:00 +5°C° 0 mm 3 m/s 756 mmHg 95%
01:00 +5°C° 0 mm 3 m/s 756 mmHg 96%
02:00 +5°C° 0.1 mm 2 m/s 756 mmHg 96%
03:00 +5°C° 0.1 mm 2 m/s 756 mmHg 96%
04:00 +5°C° 0.1 mm 2 m/s 756 mmHg 97%
05:00 +6°C° 0 mm 2 m/s 756 mmHg 94%
06:00 +6°C° 0 mm 2 m/s 756 mmHg 92%
07:00 +7°C° 0 mm 2 m/s 756 mmHg 89%
08:00 +8°C° 0 mm 3 m/s 756 mmHg 84%
09:00 +9°C° 0 mm 3 m/s 756 mmHg 78%
10:00 +11°C° 0 mm 3 m/s 756 mmHg 73%
11:00 +11°C° 0.1 mm 4 m/s 756 mmHg 69%
12:00 +12°C° 0.1 mm 4 m/s 756 mmHg 65%
13:00 +12°C° 0.1 mm 4 m/s 756 mmHg 61%
14:00 +12°C° 0 mm 4 m/s 756 mmHg 62%
15:00 +12°C° 0 mm 4 m/s 756 mmHg 62%
16:00 +11°C° 0 mm 4 m/s 756 mmHg 63%
17:00 +10°C° 0 mm 3 m/s 756 mmHg 66%
18:00 +10°C° 0 mm 3 m/s 756 mmHg 69%
19:00 +9°C° 0 mm 2 m/s 756 mmHg 71%
20:00 +9°C° 0 mm 2 m/s 756 mmHg 72%
21:00 +8°C° 0 mm 2 m/s 756 mmHg 73%
22:00 +8°C° 0 mm 2 m/s 756 mmHg 74%
23:00 +8°C° 0 mm 2 m/s 756 mmHg 76%

19 Aprilie, Luni

Timp Temperatura Precipitaţii Vânt Presiune Umiditate
00:00 +8°C° 0 mm 2 m/s 756 mmHg 77%
01:00 +8°C° 0 mm 2 m/s 756 mmHg 78%
02:00 +8°C° 0 mm 2 m/s 756 mmHg 82%
03:00 +8°C° 0 mm 2 m/s 756 mmHg 85%
04:00 +8°C° 0 mm 2 m/s 756 mmHg 89%
05:00 +8°C° 0.1 mm 3 m/s 756 mmHg 89%
06:00 +8°C° 0.1 mm 3 m/s 756 mmHg 90%
07:00 +9°C° 0.1 mm 3 m/s 756 mmHg 90%
08:00 +10°C° 0.1 mm 4 m/s 756 mmHg 86%
09:00 +11°C° 0.1 mm 4 m/s 755 mmHg 82%
10:00 +12°C° 0.1 mm 4 m/s 755 mmHg 78%
11:00 +12°C° 0.3 mm 5 m/s 755 mmHg 73%
12:00 +13°C° 0.3 mm 5 m/s 755 mmHg 69%
13:00 +14°C° 0.3 mm 5 m/s 755 mmHg 65%
14:00 +14°C° 0.1 mm 5 m/s 754 mmHg 64%
15:00 +13°C° 0.1 mm 5 m/s 754 mmHg 64%
16:00 +13°C° 0.1 mm 5 m/s 754 mmHg 63%
17:00 +12°C° 0.1 mm 4 m/s 754 mmHg 70%
18:00 +11°C° 0.1 mm 4 m/s 754 mmHg 76%
19:00 +10°C° 0.1 mm 3 m/s 754 mmHg 83%
20:00 +10°C° 0.2 mm 3 m/s 754 mmHg 84%
21:00 +10°C° 0.2 mm 3 m/s 754 mmHg 86%
22:00 +9°C° 0.2 mm 3 m/s 754 mmHg 87%
23:00 +9°C° 0.1 mm 3 m/s 754 mmHg 88%
Arată mai mult

Formular de consimțământ

Meteoprog și furnizorii noștri de servicii pot stoca și accesa date personale, precum cookies, identificatori de dispozitiv sau alte tehnologii similare pe dispozitivul dumneavoastră și procesa astfel de date pentru a personaliza conținutul și reclamele, dar și pentru a oferi caracteristici de social media și pentru a analiza traficul.

  • Stocarea și/sau accesarea informațiilor pe dispozitivul dumneavoastră

    Cookies, identificatori de dispozitiv sau alte informații pot fi stocate sau accesate pe dispozitiv în scopurile indicate mai sus.

  • Reclame și conținut personalizat, evaluarea reclamelor și a conținutului, informații despre audiențe și dezvoltarea produselor

    Reclamele și conținutul pot fi personalizate pe baza unui profil. Pot fi adăugate date suplimentare pentru a personaliza mai bine reclamele și conținutul. Performanța reclamelor și conținutului poate fi măsurată. Pot fi obținute informații despre utilizatorii care au văzut reclamele și conținutul. Aceste date pot fi utilizate pentru a dezvolta sau îmbunătăți experiența utilizatorilor, sistemele și software-ul.

Dând clic pe ‘Sunt de acord’, permiteți utilizarea cookie-urilor menționate, a identificatorilor de dispozitiv, balizelor web sau altor tehnologii similare. Setările pot fi modificate din browser-ul dispozitivului dumneavoastră.

În anumite scopuri, interesele legitime pot prima asupra consimțământului. Puteți citi mai multe informații în acest sens în Politica privind Confidențialitatea Datelor și Cookie.